Time,TemperatureF,DewpointF,PressureIn,WindDirection,WindDirectionDegrees,WindSpeedMPH,WindSpeedGustMPH,Humidity,HourlyPrecipIn,Conditions,Clouds,dailyrainin,SoftwareType,DateUTC
2013-10-20 00:00:00,42.8,42.0,30.02,East,82,0.0,0.0,97,0.00,,---,0.00,VWS V14.01,2013-10-20 04:00:00,
2013-10-20 00:01:00,42.8,42.0,30.02,East,81,0.0,0.0,97,0.00,,---,0.00,VWS V14.01,2013-10-20 04:01:00,
2013-10-20 00:05:00,48.8,46.3,30.00,ESE,111,0.0,1.0,91,0.00,,---,0.00,VWS V14.01,2013-10-20 04:05:00,
2013-10-20 00:06:00,42.6,41.8,30.02,East,81,0.0,0.0,97,0.00,,---,0.00,VWS V14.01,2013-10-20 04:06:00,
2013-10-20 00:10:00,48.3,46.1,30.00,ESE,111,0.0,0.0,92,0.00,,---,0.00,VWS V14.01,2013-10-20 04:10:00,
2013-10-20 00:11:00,42.4,41.6,30.02,East,81,0.0,0.0,97,0.00,,---,0.00,VWS V14.01,2013-10-20 04:11:00,
2013-10-20 00:15:00,48.1,45.6,30.01,North,360,0.0,1.0,91,0.00,,---,0.00,VWS V14.01,2013-10-20 04:15:00,
2013-10-20 00:16:00,42.4,41.9,30.02,East,81,0.0,0.0,98,0.00,,---,0.00,VWS V14.01,2013-10-20 04:16:00,
2013-10-20 00:20:00,47.9,45.7,30.01,North,360,0.0,0.0,92,0.00,,---,0.00,VWS V14.01,2013-10-20 04:20:00,
2013-10-20 00:21:00,42.1,41.3,30.02,East,81,0.0,0.0,97,0.00,,---,0.00,VWS V14.01,2013-10-20 04:21:00,
2013-10-20 00:25:00,47.7,45.5,30.01,North,360,0.0,0.0,92,0.00,,---,0.00,VWS V14.01,2013-10-20 04:25:00,
2013-10-20 00:26:00,41.8,41.0,30.02,East,81,0.0,0.0,97,0.00,,---,0.00,VWS V14.01,2013-10-20 04:26:00,
2013-10-20 00:30:00,47.7,45.2,30.01,West,274,0.0,0.0,91,0.00,,---,0.00,VWS V14.01,2013-10-20 04:30:00,
2013-10-20 00:31:00,41.7,41.2,30.02,East,82,0.0,0.0,98,0.00,,---,0.00,VWS V14.01,2013-10-20 04:31:00,
2013-10-20 00:35:00,47.4,45.2,30.02,West,274,0.0,0.0,92,0.00,,---,0.00,VWS V14.01,2013-10-20 04:35:00,
2013-10-20 00:36:00,41.6,41.1,30.02,East,81,0.0,0.0,98,0.00,,---,0.00,VWS V14.01,2013-10-20 04:36:00,
2013-10-20 00:40:00,46.8,44.6,30.02,West,274,0.0,0.0,92,0.00,,---,0.00,VWS V14.01,2013-10-20 04:40:00,
2013-10-20 00:41:00,41.5,41.0,30.02,East,81,0.0,0.0,98,0.00,,---,0.00,VWS V14.01,2013-10-20 04:41:00,
2013-10-20 00:45:00,46.5,44.9,30.02,West,275,0.0,0.0,94,0.00,,---,0.00,VWS V14.01,2013-10-20 04:45:00,
2013-10-20 00:46:00,41.3,40.8,30.02,East,81,0.0,0.0,98,0.00,,---,0.00,VWS V14.01,2013-10-20 04:46:00,
2013-10-20 00:50:00,46.4,44.8,30.02,West,275,0.0,1.0,94,0.00,,---,0.00,VWS V14.01,2013-10-20 04:50:00,
2013-10-20 00:51:00,41.3,40.8,30.02,East,81,0.0,0.0,98,0.00,,---,0.00,VWS V14.01,2013-10-20 04:51:00,
2013-10-20 00:55:00,46.4,44.8,30.02,West,275,0.0,1.0,94,0.00,,---,0.00,VWS V14.01,2013-10-20 04:55:00,
2013-10-20 00:56:00,41.1,40.6,30.02,East,82,0.0,0.0,98,0.00,,---,0.00,VWS V14.01,2013-10-20 04:56:00,
2013-10-20 01:00:00,46.3,44.4,30.02,East,81,0.0,1.0,93,0.00,,---,0.00,VWS V14.01,2013-10-20 05:00:00,
2013-10-20 01:01:00,40.9,40.4,30.02,East,81,0.0,0.0,98,0.00,,---,0.00,VWS V14.01,2013-10-20 05:01:00,
2013-10-20 01:05:00,46.0,44.4,30.02,East,81,0.0,1.0,94,0.00,,---,0.00,VWS V14.01,2013-10-20 05:05:00,
2013-10-20 01:06:00,41.1,40.6,30.02,East,81,0.0,0.0,98,0.00,,---,0.00,VWS V14.01,2013-10-20 05:06:00,
2013-10-20 01:10:00,45.8,44.5,30.01,East,81,0.0,1.0,95,0.00,,---,0.00,VWS V14.01,2013-10-20 05:10:00,
2013-10-20 01:11:00,41.1,40.8,30.02,East,81,0.0,0.0,99,0.00,,---,0.00,VWS V14.01,2013-10-20 05:11:00,
2013-10-20 01:15:00,45.8,44.5,30.02,East,81,0.0,1.0,95,0.00,,---,0.00,VWS V14.01,2013-10-20 05:15:00,
2013-10-20 01:16:00,40.9,40.4,30.03,East,81,0.0,0.0,98,0.00,,---,0.00,VWS V14.01,2013-10-20 05:16:00,
2013-10-20 01:20:00,45.3,43.7,30.02,East,82,0.0,0.0,94,0.00,,---,0.00,VWS V14.01,2013-10-20 05:20:00,
2013-10-20 01:21:00,40.8,40.3,30.02,East,82,0.0,0.0,98,0.00,,---,0.00,VWS V14.01,2013-10-20 05:21:00,
2013-10-20 01:25:00,44.8,43.5,30.02,East,81,0.0,0.0,95,0.00,,---,0.00,VWS V14.01,2013-10-20 05:25:00,
2013-10-20 01:26:00,40.8,40.5,30.02,East,82,0.0,0.0,99,0.00,,---,0.00,VWS V14.01,2013-10-20 05:26:00,
2013-10-20 01:30:00,44.4,43.1,30.02,East,81,0.0,0.0,95,0.00,,---,0.00,VWS V14.01,2013-10-20 05:30:00,
2013-10-20 01:31:00,40.6,40.1,30.03,East,82,0.0,0.0,98,0.00,,---,0.00,VWS V14.01,2013-10-20 05:31:00,
2013-10-20 01:35:00,44.2,43.1,30.02,East,81,0.0,0.0,96,0.00,,---,0.00,VWS V14.01,2013-10-20 05:35:00,
2013-10-20 01:36:00,40.6,40.3,30.03,East,81,0.0,0.0,99,0.00,,---,0.00,VWS V14.01,2013-10-20 05:36:00,
2013-10-20 01:40:00,43.8,42.7,30.02,East,81,0.0,0.0,96,0.00,,---,0.00,VWS V14.01,2013-10-20 05:40:00,
2013-10-20 01:41:00,40.5,40.2,30.03,East,82,0.0,0.0,99,0.00,,---,0.00,VWS V14.01,2013-10-20 05:41:00,
2013-10-20 01:45:00,43.5,42.4,30.02,East,82,0.0,0.0,96,0.00,,---,0.00,VWS V14.01,2013-10-20 05:45:00,
2013-10-20 01:46:00,40.3,40.0,30.03,East,81,0.0,0.0,99,0.00,,---,0.00,VWS V14.01,2013-10-20 05:46:00,
2013-10-20 01:50:00,43.2,42.1,30.02,East,82,0.0,0.0,96,0.00,,---,0.00,VWS V14.01,2013-10-20 05:50:00,
2013-10-20 01:51:00,40.2,39.9,30.03,East,81,0.0,0.0,99,0.00,,---,0.00,VWS V14.01,2013-10-20 05:51:00,
2013-10-20 01:55:00,43.2,42.4,30.02,East,81,0.0,0.0,97,0.00,,---,0.00,VWS V14.01,2013-10-20 05:55:00,
2013-10-20 01:56:00,40.0,39.7,30.03,East,82,0.0,0.0,99,0.00,,---,0.00,VWS V14.01,2013-10-20 05:56:00,
2013-10-20 02:00:00,42.9,42.1,30.02,East,81,0.0,0.0,97,0.00,,---,0.00,VWS V14.01,2013-10-20 06:00:00,
2013-10-20 02:01:00,39.7,39.2,30.03,East,81,0.0,0.0,98,0.00,,---,0.00,VWS V14.01,2013-10-20 06:01:00,
2013-10-20 02:05:00,42.7,41.9,30.02,East,81,0.0,0.0,97,0.00,,---,0.00,VWS V14.01,2013-10-20 06:05:00,
2013-10-20 02:06:00,39.6,39.3,30.04,East,81,0.0,0.0,99,0.00,,---,0.00,VWS V14.01,2013-10-20 06:06:00,
2013-10-20 02:10:00,42.5,41.7,30.02,East,81,0.0,0.0,97,0.00,,---,0.00,VWS V14.01,2013-10-20 06:10:00,
2013-10-20 02:11:00,39.8,39.5,30.04,East,82,0.0,1.0,99,0.00,,---,0.00,VWS V14.01,2013-10-20 06:11:00,
2013-10-20 02:15:00,42.4,41.9,30.02,East,81,0.0,0.0,98,0.00,,---,0.00,VWS V14.01,2013-10-20 06:15:00,
2013-10-20 02:16:00,39.9,39.6,30.04,East,81,0.0,0.0,99,0.00,,---,0.00,VWS V14.01,2013-10-20 06:16:00,
2013-10-20 02:20:00,42.3,41.8,30.02,East,82,0.0,0.0,98,0.00,,---,0.00,VWS V14.01,2013-10-20 06:20:00,
2013-10-20 02:21:00,39.7,39.4,30.05,East,81,0.0,0.0,99,0.00,,---,0.00,VWS V14.01,2013-10-20 06:21:00,
2013-10-20 02:25:00,42.0,41.2,30.02,East,81,0.0,0.0,97,0.00,,---,0.00,VWS V14.01,2013-10-20 06:25:00,
2013-10-20 02:26:00,39.6,39.3,30.05,East,81,0.0,0.0,99,0.00,,---,0.00,VWS V14.01,2013-10-20 06:26:00,
2013-10-20 02:30:00,41.7,41.2,30.02,East,82,0.0,0.0,98,0.00,,---,0.00,VWS V14.01,2013-10-20 06:30:00,
2013-10-20 02:31:00,39.5,39.2,30.05,East,81,0.0,0.0,99,0.00,,---,0.00,VWS V14.01,2013-10-20 06:31:00,
2013-10-20 02:35:00,41.6,41.1,30.02,East,81,0.0,0.0,98,0.00,,---,0.00,VWS V14.01,2013-10-20 06:35:00,
2013-10-20 02:36:00,39.2,38.9,30.05,East,81,0.0,0.0,99,0.00,,---,0.00,VWS V14.01,2013-10-20 06:36:00,
2013-10-20 02:40:00,41.5,41.0,30.02,East,82,0.0,0.0,98,0.00,,---,0.00,VWS V14.01,2013-10-20 06:40:00,
2013-10-20 02:42:00,39.5,39.2,30.04,East,81,0.0,0.0,99,0.00,,---,0.00,VWS V14.01,2013-10-20 06:42:00,
2013-10-20 02:45:00,41.3,40.8,30.02,East,81,0.0,0.0,98,0.00,,---,0.00,VWS V14.01,2013-10-20 06:45:00,
2013-10-20 02:47:00,39.2,38.9,30.04,East,82,0.0,0.0,99,0.00,,---,0.00,VWS V14.01,2013-10-20 06:47:00,
2013-10-20 02:50:00,41.3,40.8,30.02,East,82,0.0,0.0,98,0.00,,---,0.00,VWS V14.01,2013-10-20 06:50:00,
2013-10-20 02:52:00,39.0,38.7,30.05,East,82,0.0,0.0,99,0.00,,---,0.00,VWS V14.01,2013-10-20 06:52:00,
2013-10-20 02:55:00,41.2,40.7,30.02,East,81,0.0,0.0,98,0.00,,---,0.00,VWS V14.01,2013-10-20 06:55:00,
2013-10-20 02:57:00,38.9,38.6,30.05,East,81,0.0,0.0,99,0.00,,---,0.00,VWS V14.01,2013-10-20 06:57:00,
2013-10-20 03:00:00,40.9,40.4,30.02,East,82,0.0,0.0,98,0.00,,---,0.00,VWS V14.01,2013-10-20 07:00:00,
2013-10-20 03:02:00,38.9,38.6,30.05,East,82,0.0,0.0,99,0.00,,---,0.00,VWS V14.01,2013-10-20 07:02:00,
2013-10-20 03:05:00,40.9,40.4,30.02,East,82,0.0,0.0,98,0.00,,---,0.00,VWS V14.01,2013-10-20 07:05:00,
2013-10-20 03:07:00,38.8,38.5,30.04,East,81,0.0,0.0,99,0.00,,---,0.00,VWS V14.01,2013-10-20 07:07:00,
2013-10-20 03:10:00,41.1,40.8,30.02,East,81,0.0,0.0,99,0.00,,---,0.00,VWS V14.01,2013-10-20 07:10:00,
2013-10-20 03:12:00,38.9,38.6,30.04,East,82,0.0,0.0,99,0.00,,---,0.00,VWS V14.01,2013-10-20 07:12:00,
2013-10-20 03:15:00,41.0,40.7,30.02,East,82,0.0,0.0,99,0.00,,---,0.00,VWS V14.01,2013-10-20 07:15:00,
2013-10-20 03:17:00,38.9,38.6,30.04,East,81,0.0,0.0,99,0.00,,---,0.00,VWS V14.01,2013-10-20 07:17:00,
2013-10-20 03:20:00,40.8,40.3,30.02,East,81,0.0,0.0,98,0.00,,---,0.00,VWS V14.01,2013-10-20 07:20:00,
2013-10-20 03:22:00,38.5,38.2,30.04,East,82,0.0,0.0,99,0.00,,---,0.00,VWS V14.01,2013-10-20 07:22:00,
2013-10-20 03:25:00,40.8,40.5,30.02,East,81,0.0,0.0,99,0.00,,---,0.00,VWS V14.01,2013-10-20 07:25:00,
2013-10-20 03:27:00,38.7,38.4,30.04,East,82,0.0,0.0,99,0.00,,---,0.00,VWS V14.01,2013-10-20 07:27:00,
2013-10-20 03:30:00,40.7,40.4,30.02,East,82,0.0,0.0,99,0.00,,---,0.00,VWS V14.01,2013-10-20 07:30:00,
2013-10-20 03:32:00,38.6,38.3,30.03,East,82,0.0,0.0,99,0.00,,---,0.00,VWS V14.01,2013-10-20 07:32:00,
2013-10-20 03:35:00,40.5,40.0,30.03,East,81,0.0,0.0,98,0.00,,---,0.00,VWS V14.01,2013-10-20 07:35:00,
2013-10-20 03:37:00,38.5,38.2,30.04,East,81,0.0,0.0,99,0.00,,---,0.00,VWS V14.01,2013-10-20 07:37:00,
2013-10-20 03:40:00,40.5,40.2,30.03,East,82,0.0,0.0,99,0.00,,---,0.00,VWS V14.01,2013-10-20 07:40:00,
2013-10-20 03:42:00,38.7,38.4,30.04,East,81,0.0,0.0,99,0.00,,---,0.00,VWS V14.01,2013-10-20 07:42:00,
2013-10-20 03:45:00,40.4,40.1,30.03,East,82,0.0,0.0,99,0.00,,---,0.00,VWS V14.01,2013-10-20 07:45:00,
2013-10-20 03:47:00,38.4,38.1,30.04,East,81,0.0,0.0,99,0.00,,---,0.00,VWS V14.01,2013-10-20 07:47:00,
2013-10-20 03:50:00,40.2,39.9,30.03,East,82,0.0,0.0,99,0.00,,---,0.00,VWS V14.01,2013-10-20 07:50:00,
2013-10-20 03:52:00,38.4,38.1,30.04,East,82,0.0,0.0,99,0.00,,---,0.00,VWS V14.01,2013-10-20 07:52:00,
2013-10-20 03:55:00,40.1,39.8,30.03,East,81,0.0,0.0,99,0.00,,---,0.00,VWS V14.01,2013-10-20 07:55:00,
2013-10-20 03:57:00,38.5,38.2,30.04,East,82,0.0,1.0,99,0.00,,---,0.00,VWS V14.01,2013-10-20 07:57:00,
2013-10-20 04:00:00,39.8,39.5,30.03,East,82,0.0,0.0,99,0.00,,---,0.00,VWS V14.01,2013-10-20 08:00:00,
2013-10-20 04:02:00,38.7,38.4,30.04,East,81,0.0,0.0,99,0.00,,---,0.00,VWS V14.01,2013-10-20 08:02:00,
2013-10-20 04:05:00,39.6,39.3,30.03,East,82,0.0,0.0,99,0.00,,---,0.00,VWS V14.01,2013-10-20 08:05:00,
2013-10-20 04:07:00,38.6,38.3,30.04,East,81,0.0,0.0,99,0.00,,---,0.00,VWS V14.01,2013-10-20 08:07:00,
2013-10-20 04:10:00,39.7,39.4,30.04,East,81,0.0,0.0,99,0.00,,---,0.00,VWS V14.01,2013-10-20 08:10:00,
2013-10-20 04:12:00,38.6,38.3,30.03,East,81,0.0,0.0,99,0.00,,---,0.00,VWS V14.01,2013-10-20 08:12:00,
2013-10-20 04:15:00,39.8,39.5,30.04,East,81,0.0,1.0,99,0.00,,---,0.00,VWS V14.01,2013-10-20 08:15:00,
2013-10-20 04:17:00,38.7,38.4,30.04,East,82,0.0,0.0,99,0.00,,---,0.00,VWS V14.01,2013-10-20 08:17:00,
2013-10-20 04:20:00,39.8,39.5,30.04,East,82,0.0,0.0,99,0.00,,---,0.00,VWS V14.01,2013-10-20 08:20:00,
2013-10-20 04:22:00,38.7,38.4,30.04,East,82,0.0,0.0,99,0.00,,---,0.00,VWS V14.01,2013-10-20 08:22:00,
2013-10-20 04:25:00,39.7,39.4,30.04,East,81,0.0,0.0,99,0.00,,---,0.00,VWS V14.01,2013-10-20 08:25:00,
2013-10-20 04:27:00,38.5,38.2,30.04,East,81,0.0,0.0,99,0.00,,---,0.00,VWS V14.01,2013-10-20 08:27:00,
2013-10-20 04:30:00,39.5,39.2,30.05,East,81,0.0,0.0,99,0.00,,---,0.00,VWS V14.01,2013-10-20 08:30:00,
2013-10-20 04:32:00,38.4,38.1,30.04,East,82,0.0,0.0,99,0.00,,---,0.00,VWS V14.01,2013-10-20 08:32:00,
2013-10-20 04:35:00,39.3,39.0,30.04,East,82,0.0,0.0,99,0.00,,---,0.00,VWS V14.01,2013-10-20 08:35:00,
2013-10-20 04:37:00,38.1,37.8,30.03,East,81,0.0,0.0,99,0.00,,---,0.00,VWS V14.01,2013-10-20 08:37:00,
2013-10-20 04:40:00,39.3,39.0,30.05,East,81,0.0,0.0,99,0.00,,---,0.00,VWS V14.01,2013-10-20 08:40:00,
2013-10-20 04:42:00,37.9,37.6,30.03,East,82,0.0,0.0,99,0.00,,---,0.00,VWS V14.01,2013-10-20 08:42:00,
2013-10-20 04:45:00,39.4,39.1,30.04,East,82,0.0,0.0,99,0.00,,---,0.00,VWS V14.01,2013-10-20 08:45:00,
2013-10-20 04:47:00,38.0,37.7,30.03,East,81,0.0,0.0,99,0.00,,---,0.00,VWS V14.01,2013-10-20 08:47:00,
2013-10-20 04:50:00,39.0,38.7,30.04,East,81,0.0,0.0,99,0.00,,---,0.00,VWS V14.01,2013-10-20 08:50:00,
2013-10-20 04:52:00,37.9,37.6,30.04,East,81,0.0,0.0,99,0.00,,---,0.00,VWS V14.01,2013-10-20 08:52:00,
2013-10-20 04:55:00,38.9,38.6,30.05,East,81,0.0,0.0,99,0.00,,---,0.00,VWS V14.01,2013-10-20 08:55:00,
2013-10-20 04:57:00,37.8,37.5,30.04,East,82,0.0,0.0,99,0.00,,---,0.00,VWS V14.01,2013-10-20 08:57:00,
2013-10-20 05:00:00,39.0,38.7,30.04,East,82,0.0,0.0,99,0.00,,---,0.00,VWS V14.01,2013-10-20 09:00:00,
2013-10-20 05:02:00,37.7,37.5,30.04,East,82,0.0,0.0,99,0.00,,---,0.00,VWS V14.01,2013-10-20 09:02:00,
2013-10-20 05:05:00,38.8,38.5,30.04,East,81,0.0,0.0,99,0.00,,---,0.00,VWS V14.01,2013-10-20 09:05:00,
2013-10-20 05:07:00,37.7,37.5,30.04,East,82,0.0,0.0,99,0.00,,---,0.00,VWS V14.01,2013-10-20 09:07:00,
2013-10-20 05:10:00,38.9,38.6,30.04,East,81,0.0,0.0,99,0.00,,---,0.00,VWS V14.01,2013-10-20 09:10:00,
2013-10-20 05:12:00,37.5,37.2,30.04,East,81,0.0,0.0,99,0.00,,---,0.00,VWS V14.01,2013-10-20 09:12:00,
2013-10-20 05:15:00,38.9,38.6,30.04,East,82,0.0,0.0,99,0.00,,---,0.00,VWS V14.01,2013-10-20 09:15:00,
2013-10-20 05:17:00,37.5,37.2,30.04,East,81,0.0,0.0,99,0.00,,---,0.00,VWS V14.01,2013-10-20 09:17:00,
2013-10-20 05:20:00,38.7,38.4,30.04,East,81,0.0,0.0,99,0.00,,---,0.00,VWS V14.01,2013-10-20 09:20:00,
2013-10-20 05:22:00,37.4,37.2,30.04,East,82,0.0,0.0,99,0.00,,---,0.00,VWS V14.01,2013-10-20 09:22:00,
2013-10-20 05:25:00,38.4,38.1,30.04,East,81,0.0,0.0,99,0.00,,---,0.00,VWS V14.01,2013-10-20 09:25:00,
2013-10-20 05:27:00,37.4,37.2,30.04,East,82,0.0,0.0,99,0.00,,---,0.00,VWS V14.01,2013-10-20 09:27:00,
2013-10-20 05:30:00,38.7,38.4,30.04,East,81,0.0,0.0,99,0.00,,---,0.00,VWS V14.01,2013-10-20 09:30:00,
2013-10-20 05:32:00,37.2,37.0,30.05,East,82,0.0,0.0,99,0.00,,---,0.00,VWS V14.01,2013-10-20 09:32:00,
2013-10-20 05:35:00,38.5,38.2,30.04,East,81,0.0,0.0,99,0.00,,---,0.00,VWS V14.01,2013-10-20 09:35:00,
2013-10-20 05:37:00,37.2,37.0,30.05,East,82,0.0,0.0,99,0.00,,---,0.00,VWS V14.01,2013-10-20 09:37:00,
2013-10-20 05:40:00,38.6,38.3,30.04,East,82,0.0,0.0,99,0.00,,---,0.00,VWS V14.01,2013-10-20 09:40:00,
2013-10-20 05:42:00,37.2,37.0,30.05,East,81,0.0,0.0,99,0.00,,---,0.00,VWS V14.01,2013-10-20 09:42:00,
2013-10-20 05:45:00,38.6,38.3,30.04,East,82,0.0,0.0,99,0.00,,---,0.00,VWS V14.01,2013-10-20 09:45:00,
2013-10-20 05:47:00,37.0,36.8,30.05,East,81,0.0,0.0,99,0.00,,---,0.00,VWS V14.01,2013-10-20 09:47:00,
2013-10-20 05:50:00,38.4,38.1,30.04,East,81,0.0,0.0,99,0.00,,---,0.00,VWS V14.01,2013-10-20 09:50:00,
2013-10-20 05:52:00,36.8,36.5,30.05,East,81,0.0,0.0,99,0.00,,---,0.00,VWS V14.01,2013-10-20 09:52:00,
2013-10-20 05:55:00,38.3,38.0,30.04,East,81,0.0,0.0,99,0.00,,---,0.00,VWS V14.01,2013-10-20 09:55:00,
2013-10-20 05:57:00,36.7,36.5,30.05,East,82,0.0,0.0,99,0.00,,---,0.00,VWS V14.01,2013-10-20 09:57:00,
2013-10-20 06:00:00,38.7,38.4,30.04,East,81,0.0,1.0,99,0.00,,---,0.00,VWS V14.01,2013-10-20 10:00:00,
2013-10-20 06:02:00,36.5,36.2,30.05,East,82,0.0,0.0,99,0.00,,---,0.00,VWS V14.01,2013-10-20 10:02:00,
2013-10-20 06:05:00,38.7,38.4,30.04,East,82,0.0,0.0,99,0.00,,---,0.00,VWS V14.01,2013-10-20 10:05:00,
2013-10-20 06:07:00,36.2,36.0,30.05,East,82,0.0,0.0,99,0.00,,---,0.00,VWS V14.01,2013-10-20 10:07:00,
2013-10-20 06:10:00,38.6,38.3,30.04,East,82,0.0,0.0,99,0.00,,---,0.00,VWS V14.01,2013-10-20 10:10:00,
2013-10-20 06:12:00,36.3,36.0,30.05,East,82,0.0,0.0,99,0.00,,---,0.00,VWS V14.01,2013-10-20 10:12:00,
2013-10-20 06:15:00,38.6,38.3,30.04,East,82,0.0,0.0,99,0.00,,---,0.00,VWS V14.01,2013-10-20 10:15:00,
2013-10-20 06:17:00,36.3,36.0,30.05,East,82,0.0,0.0,99,0.00,,---,0.00,VWS V14.01,2013-10-20 10:17:00,
2013-10-20 06:20:00,38.7,38.4,30.04,East,81,0.0,0.0,99,0.00,,---,0.00,VWS V14.01,2013-10-20 10:20:00,
2013-10-20 06:22:00,36.4,36.2,30.05,East,81,0.0,0.0,99,0.00,,---,0.00,VWS V14.01,2013-10-20 10:22:00,
2013-10-20 06:25:00,38.6,38.3,30.04,East,82,0.0,0.0,99,0.00,,---,0.00,VWS V14.01,2013-10-20 10:25:00,
2013-10-20 06:27:00,36.2,36.0,30.05,East,81,0.0,0.0,99,0.00,,---,0.00,VWS V14.01,2013-10-20 10:27:00,
2013-10-20 06:30:00,38.5,38.2,30.03,East,81,0.0,0.0,99,0.00,,---,0.00,VWS V14.01,2013-10-20 10:30:00,
2013-10-20 06:32:00,36.1,35.8,30.06,East,81,0.0,0.0,99,0.00,,---,0.00,VWS V14.01,2013-10-20 10:32:00,
2013-10-20 06:35:00,38.3,38.0,30.03,East,82,0.0,0.0,99,0.00,,---,0.00,VWS V14.01,2013-10-20 10:35:00,
2013-10-20 06:37:00,36.0,35.8,30.06,East,81,0.0,0.0,99,0.01,,---,0.01,VWS V14.01,2013-10-20 10:37:00,
2013-10-20 06:40:00,38.0,37.7,30.04,East,81,0.0,0.0,99,0.00,,---,0.00,VWS V14.01,2013-10-20 10:40:00,
2013-10-20 06:42:00,35.9,35.7,30.06,East,82,0.0,0.0,99,0.01,,---,0.01,VWS V14.01,2013-10-20 10:42:00,
2013-10-20 06:45:00,37.9,37.6,30.03,East,81,0.0,0.0,99,0.00,,---,0.00,VWS V14.01,2013-10-20 10:45:00,
2013-10-20 06:47:00,35.8,35.5,30.06,East,81,0.0,0.0,99,0.01,,---,0.01,VWS V14.01,2013-10-20 10:47:00,
2013-10-20 06:50:00,38.1,37.8,30.04,East,81,0.0,0.0,99,0.00,,---,0.00,VWS V14.01,2013-10-20 10:50:00,
2013-10-20 06:52:00,35.8,35.5,30.06,East,81,0.0,0.0,99,0.01,,---,0.01,VWS V14.01,2013-10-20 10:52:00,
2013-10-20 06:55:00,37.8,37.5,30.04,East,81,0.0,0.0,99,0.00,,---,0.00,VWS V14.01,2013-10-20 10:55:00,
2013-10-20 06:57:00,35.9,35.7,30.07,East,82,0.0,0.0,99,0.01,,---,0.01,VWS V14.01,2013-10-20 10:57:00,
2013-10-20 07:00:00,37.7,37.5,30.04,East,81,0.0,0.0,99,0.00,,---,0.00,VWS V14.01,2013-10-20 11:00:00,
2013-10-20 07:02:00,35.8,35.5,30.07,East,82,0.0,0.0,99,0.01,,---,0.01,VWS V14.01,2013-10-20 11:02:00,
2013-10-20 07:05:00,37.7,37.5,30.04,East,81,0.0,0.0,99,0.00,,---,0.00,VWS V14.01,2013-10-20 11:05:00,
2013-10-20 07:07:00,35.7,35.5,30.07,East,82,0.0,0.0,99,0.01,,---,0.01,VWS V14.01,2013-10-20 11:07:00,
2013-10-20 07:10:00,37.6,37.3,30.04,East,81,0.0,0.0,99,0.00,,---,0.00,VWS V14.01,2013-10-20 11:10:00,
2013-10-20 07:12:00,35.7,35.5,30.07,East,82,0.0,0.0,99,0.01,,---,0.01,VWS V14.01,2013-10-20 11:12:00,
2013-10-20 07:15:00,37.4,37.2,30.04,East,82,0.0,0.0,99,0.00,,---,0.00,VWS V14.01,2013-10-20 11:15:00,
2013-10-20 07:17:00,35.5,35.2,30.07,East,81,0.0,0.0,99,0.01,,---,0.01,VWS V14.01,2013-10-20 11:17:00,
2013-10-20 07:20:00,37.5,37.2,30.04,East,81,0.0,0.0,99,0.00,,---,0.00,VWS V14.01,2013-10-20 11:20:00,
2013-10-20 07:22:00,35.3,35.0,30.07,East,82,0.0,0.0,99,0.01,,---,0.01,VWS V14.01,2013-10-20 11:22:00,
2013-10-20 07:25:00,37.5,37.2,30.04,East,82,0.0,0.0,99,0.00,,---,0.00,VWS V14.01,2013-10-20 11:25:00,
2013-10-20 07:27:00,35.3,35.0,30.07,East,82,0.0,0.0,99,0.01,,---,0.01,VWS V14.01,2013-10-20 11:27:00,
2013-10-20 07:30:00,37.3,37.0,30.05,East,81,0.0,0.0,99,0.00,,---,0.00,VWS V14.01,2013-10-20 11:30:00,
2013-10-20 07:32:00,35.3,35.0,30.07,East,82,0.0,0.0,99,0.01,,---,0.01,VWS V14.01,2013-10-20 11:32:00,
2013-10-20 07:35:00,37.2,37.0,30.05,East,82,0.0,0.0,99,0.00,,---,0.00,VWS V14.01,2013-10-20 11:35:00,
2013-10-20 07:37:00,35.3,35.0,30.07,East,81,0.0,0.0,99,0.01,,---,0.01,VWS V14.01,2013-10-20 11:37:00,
2013-10-20 07:40:00,37.2,37.0,30.05,East,82,0.0,0.0,99,0.00,,---,0.00,VWS V14.01,2013-10-20 11:40:00,
2013-10-20 07:42:00,35.3,35.0,30.07,East,82,0.0,0.0,99,0.00,,---,0.01,VWS V14.01,2013-10-20 11:42:00,
2013-10-20 07:45:00,37.1,36.8,30.05,East,82,0.0,0.0,99,0.00,,---,0.00,VWS V14.01,2013-10-20 11:45:00,
2013-10-20 07:47:00,35.2,35.0,30.08,East,82,0.0,0.0,99,0.00,,---,0.01,VWS V14.01,2013-10-20 11:47:00,
2013-10-20 07:50:00,36.9,36.7,30.05,East,82,0.0,0.0,99,0.00,,---,0.00,VWS V14.01,2013-10-20 11:50:00,
2013-10-20 07:52:00,35.4,35.2,30.08,East,81,0.0,0.0,99,0.00,,---,0.01,VWS V14.01,2013-10-20 11:52:00,
2013-10-20 07:55:00,36.8,36.5,30.05,East,82,0.0,0.0,99,0.00,,---,0.00,VWS V14.01,2013-10-20 11:55:00,
2013-10-20 07:57:00,35.4,35.2,30.08,East,82,0.0,0.0,99,0.00,,---,0.01,VWS V14.01,2013-10-20 11:57:00,
2013-10-20 08:00:00,36.7,36.5,30.05,East,82,0.0,0.0,99,0.00,,---,0.00,VWS V14.01,2013-10-20 12:00:00,
2013-10-20 08:02:00,35.4,35.2,30.08,East,81,0.0,0.0,99,0.00,,---,0.01,VWS V14.01,2013-10-20 12:02:00,
2013-10-20 08:05:00,36.4,36.2,30.05,East,82,0.0,0.0,99,0.00,,---,0.00,VWS V14.01,2013-10-20 12:05:00,
2013-10-20 08:07:00,35.2,35.0,30.08,East,82,0.0,0.0,99,0.00,,---,0.01,VWS V14.01,2013-10-20 12:07:00,
2013-10-20 08:10:00,36.2,36.0,30.05,East,81,0.0,0.0,99,0.00,,---,0.00,VWS V14.01,2013-10-20 12:10:00,
2013-10-20 08:12:00,35.2,35.0,30.08,East,81,0.0,0.0,99,0.00,,---,0.01,VWS V14.01,2013-10-20 12:12:00,
2013-10-20 08:15:00,36.3,36.0,30.05,East,82,0.0,0.0,99,0.00,,---,0.00,VWS V14.01,2013-10-20 12:15:00,
2013-10-20 08:17:00,35.8,35.8,30.08,East,82,0.0,0.0,100,0.00,,---,0.01,VWS V14.01,2013-10-20 12:17:00,
2013-10-20 08:20:00,36.3,36.0,30.05,East,81,0.0,0.0,99,0.00,,---,0.00,VWS V14.01,2013-10-20 12:20:00,
2013-10-20 08:22:00,37.1,37.1,30.08,East,82,0.0,0.0,100,0.00,,---,0.01,VWS V14.01,2013-10-20 12:22:00,
2013-10-20 08:25:00,36.3,36.0,30.05,East,82,0.0,0.0,99,0.00,,---,0.00,VWS V14.01,2013-10-20 12:25:00,
2013-10-20 08:27:00,37.4,37.4,30.08,East,82,0.0,0.0,100,0.00,,---,0.01,VWS V14.01,2013-10-20 12:27:00,
2013-10-20 08:30:00,36.1,35.8,30.06,East,81,0.0,0.0,99,0.00,,---,0.00,VWS V14.01,2013-10-20 12:30:00,
2013-10-20 08:32:00,38.3,38.3,30.08,East,82,0.0,0.0,100,0.00,,---,0.01,VWS V14.01,2013-10-20 12:32:00,
2013-10-20 08:35:00,36.1,35.8,30.06,East,82,0.0,0.0,99,0.00,,---,0.00,VWS V14.01,2013-10-20 12:35:00,
2013-10-20 08:37:00,38.9,38.9,30.09,East,82,0.0,0.0,100,0.00,,---,0.01,VWS V14.01,2013-10-20 12:37:00,
2013-10-20 08:40:00,36.0,35.8,30.06,East,81,0.0,0.0,99,0.01,,---,0.01,VWS V14.01,2013-10-20 12:40:00,
2013-10-20 08:42:00,39.7,39.7,30.09,East,81,0.0,0.0,100,0.00,,---,0.01,VWS V14.01,2013-10-20 12:42:00,
2013-10-20 08:45:00,35.9,35.7,30.06,East,82,0.0,0.0,99,0.01,,---,0.01,VWS V14.01,2013-10-20 12:45:00,
2013-10-20 08:47:00,41.3,41.3,30.09,East,82,0.0,0.0,100,0.00,,---,0.01,VWS V14.01,2013-10-20 12:47:00,
2013-10-20 08:50:00,35.8,35.5,30.06,East,82,0.0,0.0,99,0.01,,---,0.01,VWS V14.01,2013-10-20 12:50:00,
2013-10-20 08:52:00,41.9,41.9,30.09,East,79,0.0,0.0,100,0.00,,---,0.01,VWS V14.01,2013-10-20 12:52:00,
2013-10-20 08:55:00,36.0,35.8,30.07,East,82,0.0,0.0,99,0.01,,---,0.01,VWS V14.01,2013-10-20 12:55:00,
2013-10-20 08:58:00,42.5,42.5,30.09,East,79,0.0,1.0,100,0.00,,---,0.01,VWS V14.01,2013-10-20 12:58:00,
2013-10-20 09:00:00,35.9,35.7,30.06,East,81,0.0,0.0,99,0.01,,---,0.01,VWS V14.01,2013-10-20 13:00:00,
2013-10-20 09:03:00,43.3,43.3,30.09,ESE,120,0.0,1.0,100,0.00,,---,0.01,VWS V14.01,2013-10-20 13:03:00,
2013-10-20 09:05:00,35.7,35.5,30.07,East,81,0.0,0.0,99,0.01,,---,0.01,VWS V14.01,2013-10-20 13:05:00,
2013-10-20 09:08:00,43.5,43.5,30.09,NNE,26,0.0,1.0,100,0.00,,---,0.01,VWS V14.01,2013-10-20 13:08:00,
2013-10-20 09:10:00,35.7,35.5,30.07,East,82,0.0,0.0,99,0.01,,---,0.01,VWS V14.01,2013-10-20 13:10:00,
2013-10-20 09:13:00,43.7,43.7,30.09,NE,46,1.0,2.0,100,0.00,,---,0.01,VWS V14.01,2013-10-20 13:13:00,
2013-10-20 09:15:00,35.6,35.3,30.07,East,82,0.0,0.0,99,0.01,,---,0.01,VWS V14.01,2013-10-20 13:15:00,
2013-10-20 09:18:00,44.5,44.2,30.09,NE,44,1.0,4.0,99,0.00,,---,0.01,VWS V14.01,2013-10-20 13:18:00,
2013-10-20 09:20:00,35.3,35.0,30.07,East,82,0.0,0.0,99,0.01,,---,0.01,VWS V14.01,2013-10-20 13:20:00,
2013-10-20 09:23:00,45.2,43.6,30.09,NNE,26,0.0,2.0,94,0.00,,---,0.01,VWS V14.01,2013-10-20 13:23:00,
2013-10-20 09:25:00,35.3,35.0,30.07,East,82,0.0,0.0,99,0.01,,---,0.01,VWS V14.01,2013-10-20 13:25:00,
2013-10-20 09:28:00,45.8,44.2,30.09,NE,49,0.0,3.0,94,0.00,,---,0.01,VWS V14.01,2013-10-20 13:28:00,
2013-10-20 09:30:00,35.3,35.0,30.07,East,82,0.0,0.0,99,0.01,,---,0.01,VWS V14.01,2013-10-20 13:30:00,
2013-10-20 09:33:00,46.4,43.9,30.09,NE,41,0.0,3.0,91,0.00,,---,0.01,VWS V14.01,2013-10-20 13:33:00,
2013-10-20 09:35:00,35.3,35.0,30.07,East,81,0.0,0.0,99,0.01,,---,0.01,VWS V14.01,2013-10-20 13:35:00,
2013-10-20 09:38:00,46.7,43.3,30.09,NE,56,0.0,3.0,88,0.00,,---,0.01,VWS V14.01,2013-10-20 13:38:00,
2013-10-20 09:40:00,35.3,35.0,30.07,East,82,0.0,0.0,99,0.01,,---,0.01,VWS V14.01,2013-10-20 13:40:00,
2013-10-20 09:43:00,46.9,43.2,30.10,NE,40,1.0,3.0,87,0.00,,---,0.01,VWS V14.01,2013-10-20 13:43:00,
2013-10-20 09:45:00,35.3,35.0,30.07,East,82,0.0,0.0,99,0.00,,---,0.01,VWS V14.01,2013-10-20 13:45:00,
2013-10-20 09:48:00,47.0,43.3,30.10,NE,51,0.0,6.0,87,0.00,,---,0.01,VWS V14.01,2013-10-20 13:48:00,
2013-10-20 09:50:00,35.3,35.0,30.08,East,82,0.0,0.0,99,0.00,,---,0.01,VWS V14.01,2013-10-20 13:50:00,
2013-10-20 09:53:00,47.3,43.6,30.10,NE,40,2.0,5.0,87,0.00,,---,0.01,VWS V14.01,2013-10-20 13:53:00,
2013-10-20 09:55:00,35.4,35.2,30.08,East,81,0.0,0.0,99,0.00,,---,0.01,VWS V14.01,2013-10-20 13:55:00,
2013-10-20 09:58:00,47.6,43.3,30.10,East,84,2.0,5.0,85,0.00,,---,0.01,VWS V14.01,2013-10-20 13:58:00,
2013-10-20 10:00:00,35.4,35.2,30.08,East,81,0.0,0.0,99,0.00,,---,0.01,VWS V14.01,2013-10-20 14:00:00,
2013-10-20 10:03:00,47.8,42.9,30.10,NW,307,0.0,5.0,83,0.00,,---,0.01,VWS V14.01,2013-10-20 14:03:00,
2013-10-20 10:05:00,35.3,35.0,30.08,East,81,0.0,0.0,99,0.00,,---,0.01,VWS V14.01,2013-10-20 14:05:00,
2013-10-20 10:08:00,48.2,43.0,30.10,NNE,19,0.0,5.0,82,0.00,,---,0.01,VWS V14.01,2013-10-20 14:08:00,
2013-10-20 10:10:00,35.2,35.0,30.08,East,82,0.0,0.0,99,0.00,,---,0.01,VWS V14.01,2013-10-20 14:10:00,
2013-10-20 10:13:00,48.5,43.3,30.10,ESE,114,5.0,5.0,82,0.00,,---,0.01,VWS V14.01,2013-10-20 14:13:00,
2013-10-20 10:15:00,35.4,35.4,30.08,East,82,0.0,0.0,100,0.00,,---,0.01,VWS V14.01,2013-10-20 14:15:00,
2013-10-20 10:18:00,49.0,42.8,30.10,East,79,2.0,4.0,79,0.00,,---,0.01,VWS V14.01,2013-10-20 14:18:00,
2013-10-20 10:20:00,36.1,36.1,30.08,East,82,0.0,0.0,100,0.00,,---,0.01,VWS V14.01,2013-10-20 14:20:00,
2013-10-20 10:23:00,49.2,43.3,30.10,NNE,25,1.0,6.0,80,0.00,,---,0.01,VWS V14.01,2013-10-20 14:23:00,
2013-10-20 10:25:00,37.4,37.4,30.08,East,82,0.0,0.0,100,0.00,,---,0.01,VWS V14.01,2013-10-20 14:25:00,
2013-10-20 10:28:00,49.4,43.2,30.10,NE,34,1.0,7.0,79,0.00,,---,0.01,VWS V14.01,2013-10-20 14:28:00,
2013-10-20 10:30:00,37.6,37.6,30.08,East,82,0.0,0.0,100,0.00,,---,0.01,VWS V14.01,2013-10-20 14:30:00,
2013-10-20 10:33:00,49.7,43.5,30.10,NE,47,0.0,4.0,79,0.00,,---,0.01,VWS V14.01,2013-10-20 14:33:00,
2013-10-20 10:35:00,38.7,38.7,30.08,East,82,0.0,0.0,100,0.00,,---,0.01,VWS V14.01,2013-10-20 14:35:00,
2013-10-20 10:38:00,50.5,43.9,30.10,NE,52,0.0,4.0,78,0.00,,---,0.01,VWS V14.01,2013-10-20 14:38:00,
2013-10-20 10:40:00,39.0,39.0,30.09,East,82,0.0,0.0,100,0.00,,---,0.01,VWS V14.01,2013-10-20 14:40:00,
2013-10-20 10:43:00,50.7,44.1,30.10,NE,39,3.0,5.0,78,0.00,,---,0.01,VWS V14.01,2013-10-20 14:43:00,
2013-10-20 10:45:00,40.4,40.4,30.09,East,82,0.0,0.0,100,0.00,,---,0.01,VWS V14.01,2013-10-20 14:45:00,
2013-10-20 10:48:00,51.0,44.0,30.10,NE,51,1.0,2.0,77,0.00,,---,0.01,VWS V14.01,2013-10-20 14:48:00,
2013-10-20 10:50:00,41.6,41.6,30.09,East,82,0.0,0.0,100,0.00,,---,0.01,VWS V14.01,2013-10-20 14:50:00,
2013-10-20 10:53:00,51.3,43.7,30.10,WNW,295,1.0,4.0,75,0.00,,---,0.01,VWS V14.01,2013-10-20 14:53:00,
2013-10-20 10:55:00,42.1,42.1,30.09,East,79,0.0,0.0,100,0.00,,---,0.01,VWS V14.01,2013-10-20 14:55:00,
2013-10-20 10:58:00,51.2,44.2,30.10,SE,124,1.0,5.0,77,0.00,,---,0.01,VWS V14.01,2013-10-20 14:58:00,
2013-10-20 11:00:00,42.7,42.7,30.09,ESE,120,0.0,1.0,100,0.00,,---,0.01,VWS V14.01,2013-10-20 15:00:00,
2013-10-20 11:03:00,51.3,44.0,30.10,NE,43,0.0,5.0,76,0.00,,---,0.01,VWS V14.01,2013-10-20 15:03:00,
2013-10-20 11:05:00,43.5,43.5,30.09,ESE,120,0.0,1.0,100,0.00,,---,0.01,VWS V14.01,2013-10-20 15:05:00,
2013-10-20 11:08:00,52.0,44.3,30.10,ENE,72,0.0,3.0,75,0.00,,---,0.01,VWS V14.01,2013-10-20 15:08:00,
2013-10-20 11:10:00,43.5,43.5,30.09,NNE,28,0.0,1.0,100,0.00,,---,0.01,VWS V14.01,2013-10-20 15:10:00,
2013-10-20 11:13:00,52.3,44.6,30.10,East,90,3.0,6.0,75,0.00,,---,0.01,VWS V14.01,2013-10-20 15:13:00,
2013-10-20 11:15:00,43.9,43.9,30.09,ENE,67,0.0,2.0,100,0.00,,---,0.01,VWS V14.01,2013-10-20 15:15:00,
2013-10-20 11:18:00,52.1,43.7,30.10,North,352,0.0,6.0,73,0.00,,---,0.01,VWS V14.01,2013-10-20 15:18:00,
2013-10-20 11:20:00,44.7,43.9,30.09,NNE,27,1.0,4.0,97,0.00,,---,0.01,VWS V14.01,2013-10-20 15:20:00,
2013-10-20 11:23:00,52.2,44.5,30.10,NE,52,1.0,6.0,75,0.00,,---,0.01,VWS V14.01,2013-10-20 15:23:00,
2013-10-20 11:25:00,45.3,43.7,30.09,ENE,70,3.0,4.0,94,0.00,,---,0.01,VWS V14.01,2013-10-20 15:25:00,
2013-10-20 11:28:00,52.3,43.9,30.10,NNW,345,1.0,7.0,73,0.00,,---,0.01,VWS V14.01,2013-10-20 15:28:00,
2013-10-20 11:30:00,46.0,43.5,30.09,NE,34,3.0,3.0,91,0.00,,---,0.01,VWS V14.01,2013-10-20 15:30:00,
2013-10-20 11:33:00,52.8,43.7,30.10,ENE,75,0.0,6.0,71,0.00,,---,0.01,VWS V14.01,2013-10-20 15:33:00,
2013-10-20 11:35:00,46.5,44.0,30.09,NE,41,1.0,3.0,91,0.00,,---,0.01,VWS V14.01,2013-10-20 15:35:00,
2013-10-20 11:38:00,52.7,44.7,30.10,ENE,65,3.0,7.0,74,0.00,,---,0.01,VWS V14.01,2013-10-20 15:38:00,
2013-10-20 11:40:00,46.8,43.7,30.09,NNE,25,0.0,3.0,89,0.00,,---,0.01,VWS V14.01,2013-10-20 15:40:00,
2013-10-20 11:43:00,52.7,43.6,30.10,ESE,102,1.0,7.0,71,0.00,,---,0.01,VWS V14.01,2013-10-20 15:43:00,
2013-10-20 11:45:00,46.9,43.2,30.10,NE,47,1.0,6.0,87,0.00,,---,0.01,VWS V14.01,2013-10-20 15:45:00,
2013-10-20 11:48:00,53.4,45.3,30.09,ENE,65,1.0,3.0,74,0.00,,---,0.01,VWS V14.01,2013-10-20 15:48:00,
2013-10-20 11:50:00,47.1,43.1,30.10,ENE,71,5.0,6.0,86,0.00,,---,0.01,VWS V14.01,2013-10-20 15:50:00,
2013-10-20 11:53:00,54.6,45.0,30.09,ESE,103,3.0,4.0,70,0.00,,---,0.01,VWS V14.01,2013-10-20 15:53:00,
2013-10-20 11:55:00,47.3,43.0,30.10,NE,54,2.0,6.0,85,0.00,,---,0.01,VWS V14.01,2013-10-20 15:55:00,
2013-10-20 11:58:00,54.5,44.5,30.09,SSE,154,3.0,5.0,69,0.00,,---,0.01,VWS V14.01,2013-10-20 15:58:00,
2013-10-20 12:00:00,47.6,43.0,30.10,NE,49,1.0,5.0,84,0.00,,---,0.01,VWS V14.01,2013-10-20 16:00:00,
2013-10-20 12:03:00,54.8,44.5,30.10,West,264,2.0,7.0,68,0.00,,---,0.01,VWS V14.01,2013-10-20 16:03:00,
2013-10-20 12:05:00,47.9,43.3,30.10,NNE,33,1.0,5.0,84,0.00,,---,0.01,VWS V14.01,2013-10-20 16:05:00,
2013-10-20 12:08:00,55.3,45.3,30.09,ESE,104,2.0,4.0,69,0.00,,---,0.01,VWS V14.01,2013-10-20 16:08:00,
2013-10-20 12:10:00,48.3,43.7,30.10,ENE,68,0.0,5.0,84,0.00,,---,0.01,VWS V14.01,2013-10-20 16:10:00,
2013-10-20 12:13:00,55.9,44.3,30.09,ESE,110,2.0,3.0,65,0.00,,---,0.01,VWS V14.01,2013-10-20 16:13:00,
2013-10-20 12:15:00,48.7,43.5,30.10,NNE,23,0.0,5.0,82,0.00,,---,0.01,VWS V14.01,2013-10-20 16:15:00,
2013-10-20 12:18:00,56.0,44.8,30.09,ENE,63,1.0,5.0,66,0.00,,---,0.01,VWS V14.01,2013-10-20 16:18:00,
2013-10-20 12:20:00,49.0,43.1,30.10,ESE,108,1.0,4.0,80,0.00,,---,0.01,VWS V14.01,2013-10-20 16:20:00,
2013-10-20 12:23:00,56.1,44.9,30.09,NNE,22,1.0,4.0,66,0.00,,---,0.01,VWS V14.01,2013-10-20 16:23:00,
2013-10-20 12:25:00,49.3,43.1,30.10,NE,51,4.0,7.0,79,0.00,,---,0.01,VWS V14.01,2013-10-20 16:25:00,
2013-10-20 12:28:00,56.1,44.1,30.09,NE,45,1.0,3.0,64,0.00,,---,0.01,VWS V14.01,2013-10-20 16:28:00,
2013-10-20 12:30:00,49.5,43.3,30.10,South,173,2.0,7.0,79,0.00,,---,0.01,VWS V14.01,2013-10-20 16:30:00,
2013-10-20 12:33:00,56.6,44.6,30.09,NW,314,1.0,3.0,64,0.00,,---,0.01,VWS V14.01,2013-10-20 16:33:00,
2013-10-20 12:35:00,49.9,44.0,30.10,ESE,111,0.0,4.0,80,0.00,,---,0.01,VWS V14.01,2013-10-20 16:35:00,
2013-10-20 12:36:00,56.9,44.0,30.09,ENE,75,2.0,6.0,62,0.00,,---,0.01,VWS V14.01,2013-10-20 16:36:00,
2013-10-20 12:41:00,56.5,43.7,30.09,NE,40,0.0,4.0,62,0.00,,---,0.01,VWS V14.01,2013-10-20 16:41:00,
2013-10-20 12:45:00,50.7,43.8,30.10,NNE,17,0.0,5.0,77,0.00,,---,0.01,VWS V14.01,2013-10-20 16:45:00,
2013-10-20 12:46:00,57.4,44.1,30.09,WNW,300,0.0,1.0,61,0.00,,---,0.01,VWS V14.01,2013-10-20 16:46:00,
2013-10-20 12:50:00,51.2,44.2,30.10,ESE,108,1.0,2.0,77,0.00,,---,0.01,VWS V14.01,2013-10-20 16:50:00,
2013-10-20 12:51:00,57.4,42.8,30.08,WSW,242,2.0,2.0,58,0.00,,---,0.01,VWS V14.01,2013-10-20 16:51:00,
2013-10-20 12:55:00,51.2,44.2,30.10,ENE,57,0.0,4.0,77,0.00,,---,0.01,VWS V14.01,2013-10-20 16:55:00,
2013-10-20 12:56:00,57.4,43.6,30.08,NNE,27,3.0,5.0,60,0.00,,---,0.01,VWS V14.01,2013-10-20 16:56:00,
2013-10-20 13:00:00,51.3,44.3,30.10,North,349,3.0,5.0,77,0.00,,---,0.01,VWS V14.01,2013-10-20 17:00:00,
2013-10-20 13:01:00,57.6,43.4,30.08,NE,50,2.0,5.0,59,0.00,,---,0.01,VWS V14.01,2013-10-20 17:01:00,
2013-10-20 13:05:00,51.4,44.4,30.10,SE,134,0.0,5.0,77,0.00,,---,0.01,VWS V14.01,2013-10-20 17:05:00,
2013-10-20 13:06:00,57.4,41.8,30.08,ENE,74,1.0,4.0,56,0.00,,---,0.01,VWS V14.01,2013-10-20 17:06:00,
2013-10-20 13:10:00,52.1,43.7,30.10,NE,41,2.0,6.0,73,0.00,,---,0.01,VWS V14.01,2013-10-20 17:10:00,
2013-10-20 13:12:00,57.4,43.2,30.08,NE,47,2.0,3.0,59,0.00,,---,0.01,VWS V14.01,2013-10-20 17:12:00,
2013-10-20 13:15:00,52.3,43.9,30.10,ESE,103,0.0,6.0,73,0.00,,---,0.01,VWS V14.01,2013-10-20 17:15:00,
2013-10-20 13:17:00,58.2,44.4,30.08,NE,52,2.0,4.0,60,0.00,,---,0.01,VWS V14.01,2013-10-20 17:17:00,
2013-10-20 13:20:00,52.0,43.6,30.10,NE,34,2.0,6.0,73,0.00,,---,0.01,VWS V14.01,2013-10-20 17:20:00,
2013-10-20 13:22:00,58.2,43.5,30.07,East,82,3.0,5.0,58,0.00,,---,0.01,VWS V14.01,2013-10-20 17:22:00,
2013-10-20 13:25:00,52.4,44.4,30.10,ENE,66,6.0,7.0,74,0.00,,---,0.01,VWS V14.01,2013-10-20 17:25:00,
2013-10-20 13:27:00,58.2,43.5,30.07,SE,139,0.0,3.0,58,0.00,,---,0.01,VWS V14.01,2013-10-20 17:27:00,
2013-10-20 13:30:00,52.4,44.0,30.10,ESE,114,1.0,7.0,73,0.00,,---,0.01,VWS V14.01,2013-10-20 17:30:00,
2013-10-20 13:32:00,58.4,42.8,30.07,SSE,152,2.0,5.0,56,0.00,,---,0.01,VWS V14.01,2013-10-20 17:32:00,
2013-10-20 13:35:00,52.8,43.7,30.10,ESE,105,4.0,7.0,71,0.00,,---,0.01,VWS V14.01,2013-10-20 17:35:00,
2013-10-20 13:37:00,59.9,45.1,30.07,West,273,3.0,3.0,58,0.00,,---,0.01,VWS V14.01,2013-10-20 17:37:00,
2013-10-20 13:40:00,52.7,43.6,30.10,SE,131,4.0,7.0,71,0.00,,---,0.01,VWS V14.01,2013-10-20 17:40:00,
2013-10-20 13:42:00,60.2,44.0,30.06,ESE,107,6.0,6.0,55,0.00,,---,0.01,VWS V14.01,2013-10-20 17:42:00,
2013-10-20 13:45:00,52.7,43.9,30.10,North,4,0.0,7.0,72,0.00,,---,0.01,VWS V14.01,2013-10-20 17:45:00,
2013-10-20 13:47:00,59.7,43.5,30.06,ENE,67,3.0,5.0,55,0.00,,---,0.01,VWS V14.01,2013-10-20 17:47:00,
2013-10-20 13:50:00,53.9,45.5,30.10,South,169,2.0,3.0,73,0.00,,---,0.01,VWS V14.01,2013-10-20 17:50:00,
2013-10-20 13:52:00,60.2,44.5,30.05,SE,144,0.0,4.0,56,0.00,,---,0.01,VWS V14.01,2013-10-20 17:52:00,
2013-10-20 13:55:00,54.5,44.5,30.10,ENE,68,2.0,4.0,69,0.00,,---,0.01,VWS V14.01,2013-10-20 17:55:00,
2013-10-20 13:57:00,60.5,42.3,30.05,SW,224,1.0,5.0,51,0.00,,---,0.01,VWS V14.01,2013-10-20 17:57:00,
2013-10-20 14:00:00,54.6,45.0,30.09,East,94,5.0,6.0,70,0.00,,---,0.01,VWS V14.01,2013-10-20 18:00:00,
2013-10-20 14:02:00,60.6,43.4,30.05,NE,38,3.0,3.0,53,0.00,,---,0.01,VWS V14.01,2013-10-20 18:02:00,
2013-10-20 14:05:00,54.8,44.5,30.09,NW,319,0.0,7.0,68,0.00,,---,0.01,VWS V14.01,2013-10-20 18:05:00,
2013-10-20 14:07:00,60.4,42.2,30.05,SW,217,1.0,3.0,51,0.00,,---,0.01,VWS V14.01,2013-10-20 18:07:00,
2013-10-20 14:10:00,55.4,44.6,30.09,ESE,111,0.0,4.0,67,0.00,,---,0.01,VWS V14.01,2013-10-20 18:10:00,
2013-10-20 14:12:00,61.4,44.6,30.05,ESE,120,4.0,4.0,54,0.00,,---,0.01,VWS V14.01,2013-10-20 18:12:00,
2013-10-20 14:15:00,55.9,44.7,30.09,NNW,331,0.0,3.0,66,0.00,,---,0.01,VWS V14.01,2013-10-20 18:15:00,
2013-10-20 14:17:00,61.5,44.2,30.04,NNW,339,0.0,2.0,53,0.00,,---,0.01,VWS V14.01,2013-10-20 18:17:00,
2013-10-20 14:20:00,56.0,44.8,30.09,ENE,61,2.0,5.0,66,0.00,,---,0.01,VWS V14.01,2013-10-20 18:20:00,
2013-10-20 14:22:00,61.3,43.5,30.04,ESE,113,0.0,4.0,52,0.00,,---,0.01,VWS V14.01,2013-10-20 18:22:00,
2013-10-20 14:25:00,56.3,45.1,30.09,NE,46,2.0,4.0,66,0.00,,---,0.01,VWS V14.01,2013-10-20 18:25:00,
2013-10-20 14:27:00,61.6,43.3,30.04,ESE,119,2.0,3.0,51,0.00,,---,0.01,VWS V14.01,2013-10-20 18:27:00,
2013-10-20 14:30:00,56.2,44.2,30.09,West,262,1.0,3.0,64,0.00,,---,0.01,VWS V14.01,2013-10-20 18:30:00,
2013-10-20 14:32:00,61.2,41.9,30.04,NE,51,0.0,4.0,49,0.00,,---,0.01,VWS V14.01,2013-10-20 18:32:00,
2013-10-20 14:35:00,56.9,45.3,30.09,NE,48,1.0,3.0,65,0.00,,---,0.01,VWS V14.01,2013-10-20 18:35:00,
2013-10-20 14:37:00,61.6,41.7,30.04,ENE,58,2.0,5.0,48,0.00,,---,0.01,VWS V14.01,2013-10-20 18:37:00,
2013-10-20 14:40:00,56.6,44.2,30.09,NNE,25,3.0,6.0,63,0.00,,---,0.01,VWS V14.01,2013-10-20 18:40:00,
2013-10-20 14:42:00,61.0,40.7,30.03,East,91,1.0,6.0,47,0.00,,---,0.01,VWS V14.01,2013-10-20 18:42:00,
2013-10-20 14:45:00,56.8,43.5,30.09,NE,55,0.0,4.0,61,0.00,,---,0.01,VWS V14.01,2013-10-20 18:45:00,
2013-10-20 14:47:00,61.5,41.7,30.03,North,353,0.0,2.0,48,0.00,,---,0.01,VWS V14.01,2013-10-20 18:47:00,
2013-10-20 14:50:00,57.6,43.4,30.09,NNE,25,0.0,3.0,59,0.00,,---,0.01,VWS V14.01,2013-10-20 18:50:00,
2013-10-20 14:52:00,62.1,42.2,30.03,NE,41,2.0,3.0,48,0.00,,---,0.01,VWS V14.01,2013-10-20 18:52:00,
2013-10-20 14:55:00,57.3,43.5,30.08,WSW,252,2.0,3.0,60,0.00,,---,0.01,VWS V14.01,2013-10-20 18:55:00,
2013-10-20 14:57:00,62.1,41.7,30.03,NE,49,0.0,2.0,47,0.00,,---,0.01,VWS V14.01,2013-10-20 18:57:00,
2013-10-20 15:00:00,57.5,43.7,30.08,ENE,77,2.0,5.0,60,0.00,,---,0.01,VWS V14.01,2013-10-20 19:00:00,
2013-10-20 15:02:00,62.2,40.6,30.03,NE,44,2.0,4.0,45,0.00,,---,0.01,VWS V14.01,2013-10-20 19:02:00,
2013-10-20 15:05:00,57.6,41.6,30.08,ESE,123,3.0,7.0,55,0.00,,---,0.01,VWS V14.01,2013-10-20 19:05:00,
2013-10-20 15:07:00,62.1,41.1,30.03,North,8,1.0,3.0,46,0.00,,---,0.01,VWS V14.01,2013-10-20 19:07:00,
2013-10-20 15:10:00,57.3,42.2,30.08,ENE,72,2.0,5.0,57,0.00,,---,0.01,VWS V14.01,2013-10-20 19:10:00,
2013-10-20 15:12:00,62.5,40.9,30.02,NE,44,3.0,4.0,45,0.00,,---,0.01,VWS V14.01,2013-10-20 19:12:00,
2013-10-20 15:15:00,57.9,43.7,30.08,NE,44,2.0,5.0,59,0.00,,---,0.01,VWS V14.01,2013-10-20 19:15:00,
2013-10-20 15:17:00,62.7,40.5,30.02,SSE,153,2.0,4.0,44,0.00,,---,0.01,VWS V14.01,2013-10-20 19:17:00,
2013-10-20 15:20:00,58.1,44.3,30.08,SE,134,0.0,4.0,60,0.00,,---,0.01,VWS V14.01,2013-10-20 19:20:00,
2013-10-20 15:22:00,62.6,39.2,30.02,ESE,116,2.0,4.0,42,0.00,,---,0.01,VWS V14.01,2013-10-20 19:22:00,
2013-10-20 15:25:00,58.0,43.3,30.07,East,94,0.0,6.0,58,0.00,,---,0.01,VWS V14.01,2013-10-20 19:25:00,
2013-10-20 15:27:00,62.9,41.3,30.02,WNW,293,0.0,4.0,45,0.00,,---,0.01,VWS V14.01,2013-10-20 19:27:00,
2013-10-20 15:30:00,58.3,42.2,30.07,SE,132,1.0,6.0,55,0.00,,---,0.01,VWS V14.01,2013-10-20 19:30:00,
2013-10-20 15:32:00,63.6,41.3,30.02,ESE,110,0.0,3.0,44,0.00,,---,0.01,VWS V14.01,2013-10-20 19:32:00,
2013-10-20 15:35:00,59.0,44.3,30.07,SE,145,0.0,5.0,58,0.00,,---,0.01,VWS V14.01,2013-10-20 19:35:00,
2013-10-20 15:37:00,63.4,40.5,30.02,NE,42,1.0,5.0,43,0.00,,---,0.01,VWS V14.01,2013-10-20 19:37:00,
2013-10-20 15:40:00,60.1,44.4,30.06,West,260,0.0,3.0,56,0.00,,---,0.01,VWS V14.01,2013-10-20 19:40:00,
2013-10-20 15:42:00,62.9,41.3,30.02,East,101,4.0,4.0,45,0.00,,---,0.01,VWS V14.01,2013-10-20 19:42:00,
2013-10-20 15:45:00,59.7,43.0,30.06,ENE,63,3.0,10.0,54,0.00,,---,0.01,VWS V14.01,2013-10-20 19:45:00,
2013-10-20 15:47:00,62.9,39.5,30.02,East,85,1.0,5.0,42,0.00,,---,0.01,VWS V14.01,2013-10-20 19:47:00,
2013-10-20 15:50:00,59.8,44.1,30.06,NE,36,1.0,6.0,56,0.00,,---,0.01,VWS V14.01,2013-10-20 19:50:00,
2013-10-20 15:52:00,63.2,40.3,30.02,NE,37,2.0,3.0,43,0.00,,---,0.01,VWS V14.01,2013-10-20 19:52:00,
2013-10-20 15:55:00,60.6,41.9,30.05,East,84,2.0,4.0,50,0.00,,---,0.01,VWS V14.01,2013-10-20 19:55:00,
2013-10-20 15:57:00,63.5,39.4,30.02,ENE,59,0.0,5.0,41,0.00,,---,0.01,VWS V14.01,2013-10-20 19:57:00,
2013-10-20 16:00:00,60.5,42.3,30.05,NNE,19,0.0,5.0,51,0.00,,---,0.01,VWS V14.01,2013-10-20 20:00:00,
2013-10-20 16:02:00,63.5,38.8,30.02,East,90,2.0,3.0,40,0.00,,---,0.01,VWS V14.01,2013-10-20 20:02:00,
2013-10-20 16:05:00,60.3,42.6,30.05,East,96,2.0,4.0,52,0.00,,---,0.01,VWS V14.01,2013-10-20 20:05:00,
2013-10-20 16:07:00,63.4,39.9,30.01,WNW,293,1.0,1.0,42,0.00,,---,0.01,VWS V14.01,2013-10-20 20:07:00,
2013-10-20 16:10:00,60.7,43.0,30.05,ESE,104,0.0,3.0,52,0.00,,---,0.01,VWS V14.01,2013-10-20 20:10:00,
2013-10-20 16:12:00,63.4,38.7,30.01,NE,41,1.0,3.0,40,0.00,,---,0.01,VWS V14.01,2013-10-20 20:12:00,
2013-10-20 16:15:00,61.3,43.5,30.04,West,270,0.0,5.0,52,0.00,,---,0.01,VWS V14.01,2013-10-20 20:15:00,
2013-10-20 16:17:00,63.3,38.6,30.02,ESE,117,2.0,5.0,40,0.00,,---,0.01,VWS V14.01,2013-10-20 20:17:00,
2013-10-20 16:20:00,61.5,43.7,30.04,NNE,31,0.0,3.0,52,0.00,,---,0.01,VWS V14.01,2013-10-20 20:20:00,
2013-10-20 16:22:00,63.3,40.5,30.02,NE,54,2.0,4.0,43,0.00,,---,0.01,VWS V14.01,2013-10-20 20:22:00,
2013-10-20 16:25:00,61.1,43.4,30.04,North,356,0.0,4.0,52,0.00,,---,0.01,VWS V14.01,2013-10-20 20:25:00,
2013-10-20 16:27:00,63.4,38.0,30.02,SE,124,1.0,6.0,39,0.00,,---,0.01,VWS V14.01,2013-10-20 20:27:00,
2013-10-20 16:30:00,61.4,42.6,30.04,West,263,3.0,6.0,50,0.00,,---,0.01,VWS V14.01,2013-10-20 20:30:00,
2013-10-20 16:32:00,63.7,38.3,30.02,ENE,65,2.0,2.0,39,0.00,,---,0.01,VWS V14.01,2013-10-20 20:32:00,
2013-10-20 16:35:00,61.3,42.0,30.04,NW,307,2.0,4.0,49,0.00,,---,0.01,VWS V14.01,2013-10-20 20:35:00,
2013-10-20 16:37:00,63.9,37.1,30.02,NE,53,0.0,3.0,37,0.00,,---,0.01,VWS V14.01,2013-10-20 20:37:00,
2013-10-20 16:40:00,61.4,42.1,30.03,NE,39,3.0,5.0,49,0.00,,---,0.01,VWS V14.01,2013-10-20 20:40:00,
2013-10-20 16:42:00,63.8,37.7,30.02,NE,37,2.0,3.0,38,0.00,,---,0.01,VWS V14.01,2013-10-20 20:42:00,
2013-10-20 16:45:00,61.0,41.7,30.03,NNW,329,1.0,6.0,49,0.00,,---,0.01,VWS V14.01,2013-10-20 20:45:00,
2013-10-20 16:47:00,63.6,38.2,30.02,ESE,113,0.0,4.0,39,0.00,,---,0.01,VWS V14.01,2013-10-20 20:47:00,
2013-10-20 16:50:00,61.9,41.5,30.03,ENE,68,0.0,2.0,47,0.00,,---,0.01,VWS V14.01,2013-10-20 20:50:00,
2013-10-20 16:52:00,63.4,36.7,30.02,East,94,0.0,3.0,37,0.00,,---,0.01,VWS V14.01,2013-10-20 20:52:00,
2013-10-20 16:55:00,62.2,41.2,30.03,NW,304,1.0,3.0,46,0.00,,---,0.01,VWS V14.01,2013-10-20 20:55:00,
2013-10-20 16:57:00,63.7,37.6,30.02,North,358,0.0,2.0,38,0.00,,---,0.01,VWS V14.01,2013-10-20 20:57:00,
2013-10-20 17:00:00,62.2,41.7,30.03,NNW,339,0.0,5.0,47,0.00,,---,0.01,VWS V14.01,2013-10-20 21:00:00,
2013-10-20 17:02:00,63.9,37.8,30.02,NE,47,2.0,2.0,38,0.00,,---,0.01,VWS V14.01,2013-10-20 21:02:00,
2013-10-20 17:05:00,62.2,40.6,30.03,NNE,24,1.0,4.0,45,0.00,,---,0.01,VWS V14.01,2013-10-20 21:05:00,
2013-10-20 17:07:00,64.4,36.9,30.02,NNE,20,1.0,2.0,36,0.00,,---,0.01,VWS V14.01,2013-10-20 21:07:00,
2013-10-20 17:10:00,62.5,42.0,30.02,NE,54,2.0,3.0,47,0.00,,---,0.01,VWS V14.01,2013-10-20 21:10:00,
2013-10-20 17:12:00,64.7,39.2,30.02,NW,326,0.0,0.0,39,0.00,,---,0.01,VWS V14.01,2013-10-20 21:12:00,
2013-10-20 17:15:00,62.5,40.9,30.02,ENE,77,0.0,4.0,45,0.00,,---,0.01,VWS V14.01,2013-10-20 21:15:00,
2013-10-20 17:17:00,65.2,38.3,30.02,NNW,328,0.0,1.0,37,0.00,,---,0.01,VWS V14.01,2013-10-20 21:17:00,
2013-10-20 17:20:00,62.6,41.0,30.02,NE,42,3.0,5.0,45,0.00,,---,0.01,VWS V14.01,2013-10-20 21:20:00,
2013-10-20 17:22:00,64.9,37.3,30.02,NE,51,0.0,3.0,36,0.00,,---,0.01,VWS V14.01,2013-10-20 21:22:00,
2013-10-20 17:25:00,62.7,39.9,30.02,ESE,115,0.0,4.0,43,0.00,,---,0.01,VWS V14.01,2013-10-20 21:25:00,
2013-10-20 17:27:00,64.2,38.1,30.01,North,358,0.0,2.0,38,0.00,,---,0.01,VWS V14.01,2013-10-20 21:27:00,
2013-10-20 17:30:00,63.1,42.0,30.02,SSW,195,0.0,4.0,46,0.00,,---,0.01,VWS V14.01,2013-10-20 21:30:00,
2013-10-20 17:32:00,64.0,40.5,30.01,North,4,1.0,2.0,42,0.00,,---,0.01,VWS V14.01,2013-10-20 21:32:00,
2013-10-20 17:35:00,63.6,41.9,30.02,West,262,1.0,3.0,45,0.00,,---,0.01,VWS V14.01,2013-10-20 21:35:00,
2013-10-20 17:37:00,64.1,39.3,30.01,ESE,115,0.0,1.0,40,0.00,,---,0.01,VWS V14.01,2013-10-20 21:37:00,
2013-10-20 17:40:00,63.0,40.8,30.02,East,95,3.0,5.0,44,0.00,,---,0.01,VWS V14.01,2013-10-20 21:40:00,
2013-10-20 17:42:00,63.5,40.0,30.01,SE,130,0.0,1.0,42,0.00,,---,0.01,VWS V14.01,2013-10-20 21:42:00,
2013-10-20 17:45:00,62.9,40.7,30.02,NNW,345,1.0,5.0,44,0.00,,---,0.01,VWS V14.01,2013-10-20 21:45:00,
2013-10-20 17:47:00,63.7,39.6,30.01,East,96,0.0,2.0,41,0.00,,---,0.01,VWS V14.01,2013-10-20 21:47:00,
2013-10-20 17:50:00,62.7,39.9,30.02,SE,133,2.0,5.0,43,0.00,,---,0.01,VWS V14.01,2013-10-20 21:50:00,
2013-10-20 17:53:00,64.1,40.6,30.01,East,86,0.0,1.0,42,0.00,,---,0.01,VWS V14.01,2013-10-20 21:53:00,
2013-10-20 17:55:00,63.4,41.1,30.02,NE,44,1.0,3.0,44,0.00,,---,0.01,VWS V14.01,2013-10-20 21:55:00,
2013-10-20 17:58:00,63.9,41.6,30.01,NW,307,0.0,1.0,44,0.00,,---,0.01,VWS V14.01,2013-10-20 21:58:00,
2013-10-20 18:00:00,63.3,39.2,30.02,NE,49,0.0,5.0,41,0.00,,---,0.01,VWS V14.01,2013-10-20 22:00:00,
2013-10-20 18:03:00,62.9,41.8,30.01,NW,307,0.0,0.0,46,0.00,,---,0.01,VWS V14.01,2013-10-20 22:03:00,
2013-10-20 18:05:00,63.3,38.6,30.02,SE,126,0.0,3.0,40,0.00,,---,0.01,VWS V14.01,2013-10-20 22:05:00,
2013-10-20 18:08:00,62.6,41.0,30.01,NW,307,0.0,0.0,45,0.00,,---,0.01,VWS V14.01,2013-10-20 22:08:00,
2013-10-20 18:10:00,63.4,39.9,30.01,NE,43,2.0,5.0,42,0.00,,---,0.01,VWS V14.01,2013-10-20 22:10:00,
2013-10-20 18:13:00,61.2,41.9,30.02,NW,307,0.0,0.0,49,0.00,,---,0.01,VWS V14.01,2013-10-20 22:13:00,
2013-10-20 18:15:00,63.5,39.4,30.02,ESE,105,4.0,5.0,41,0.00,,---,0.01,VWS V14.01,2013-10-20 22:15:00,
2013-10-20 18:18:00,59.9,42.2,30.02,NW,307,0.0,0.0,52,0.00,,---,0.01,VWS V14.01,2013-10-20 22:18:00,
2013-10-20 18:20:00,63.3,41.0,30.02,ESE,104,0.0,5.0,44,0.00,,---,0.01,VWS V14.01,2013-10-20 22:20:00,
2013-10-20 18:23:00,58.9,41.8,30.02,NW,307,0.0,0.0,53,0.00,,---,0.01,VWS V14.01,2013-10-20 22:23:00,
2013-10-20 18:25:00,63.3,39.8,30.02,SE,131,0.0,4.0,42,0.00,,---,0.01,VWS V14.01,2013-10-20 22:25:00,
2013-10-20 18:28:00,58.4,41.3,30.02,NW,307,0.0,0.0,53,0.00,,---,0.01,VWS V14.01,2013-10-20 22:28:00,
2013-10-20 18:30:00,63.4,37.4,30.02,ESE,105,1.0,6.0,38,0.00,,---,0.01,VWS V14.01,2013-10-20 22:30:00,
2013-10-20 18:33:00,57.8,43.1,30.02,NW,307,0.0,0.0,58,0.00,,---,0.01,VWS V14.01,2013-10-20 22:33:00,
2013-10-20 18:35:00,63.8,38.4,30.02,NE,39,1.0,2.0,39,0.00,,---,0.01,VWS V14.01,2013-10-20 22:35:00,
2013-10-20 18:38:00,57.0,42.8,30.02,NW,307,0.0,0.0,59,0.00,,---,0.01,VWS V14.01,2013-10-20 22:38:00,
2013-10-20 18:40:00,64.0,37.9,30.02,ESE,104,3.0,3.0,38,0.00,,---,0.01,VWS V14.01,2013-10-20 22:40:00,
2013-10-20 18:43:00,56.3,43.5,30.02,NW,307,0.0,0.0,62,0.00,,---,0.01,VWS V14.01,2013-10-20 22:43:00,
2013-10-20 18:45:00,63.8,37.0,30.02,ENE,70,3.0,3.0,37,0.00,,---,0.01,VWS V14.01,2013-10-20 22:45:00,
2013-10-20 18:48:00,55.5,43.1,30.02,NW,307,0.0,0.0,63,0.00,,---,0.01,VWS V14.01,2013-10-20 22:48:00,
2013-10-20 18:50:00,63.6,37.5,30.02,ENE,65,1.0,4.0,38,0.00,,---,0.01,VWS V14.01,2013-10-20 22:50:00,
2013-10-20 18:53:00,54.6,43.5,30.02,NW,307,0.0,0.0,66,0.00,,---,0.01,VWS V14.01,2013-10-20 22:53:00,
2013-10-20 18:55:00,63.5,38.1,30.02,ESE,109,2.0,3.0,39,0.00,,---,0.01,VWS V14.01,2013-10-20 22:55:00,
2013-10-20 18:58:00,53.6,44.1,30.02,NW,307,0.0,0.0,70,0.00,,---,0.01,VWS V14.01,2013-10-20 22:58:00,
2013-10-20 19:00:00,63.7,37.0,30.02,NE,45,0.0,3.0,37,0.00,,---,0.01,VWS V14.01,2013-10-20 23:00:00,
2013-10-20 19:03:00,52.7,44.3,30.02,NW,307,0.0,0.0,73,0.00,,---,0.01,VWS V14.01,2013-10-20 23:03:00,
2013-10-20 19:05:00,63.8,36.4,30.01,ENE,75,0.0,2.0,36,0.00,,---,0.01,VWS V14.01,2013-10-20 23:05:00,
2013-10-20 19:08:00,51.9,44.2,30.02,NW,307,0.0,0.0,75,0.00,,---,0.01,VWS V14.01,2013-10-20 23:08:00,
2013-10-20 19:10:00,64.5,36.3,30.02,NNE,31,0.0,2.0,35,0.00,,---,0.01,VWS V14.01,2013-10-20 23:10:00,
2013-10-20 19:13:00,51.2,44.6,30.02,NW,307,0.0,0.0,78,0.00,,---,0.01,VWS V14.01,2013-10-20 23:13:00,
2013-10-20 19:15:00,64.6,38.4,30.02,NNW,327,0.0,1.0,38,0.00,,---,0.01,VWS V14.01,2013-10-20 23:15:00,
2013-10-20 19:18:00,50.4,44.5,30.02,NW,307,0.0,0.0,80,0.00,,---,0.01,VWS V14.01,2013-10-20 23:18:00,
2013-10-20 19:20:00,65.3,38.4,30.02,NNW,328,0.0,1.0,37,0.00,,---,0.01,VWS V14.01,2013-10-20 23:20:00,
2013-10-20 19:23:00,49.8,44.5,30.02,NW,307,0.0,0.0,82,0.00,,---,0.01,VWS V14.01,2013-10-20 23:23:00,
2013-10-20 19:25:00,64.5,37.7,30.01,East,80,0.0,3.0,37,0.00,,---,0.01,VWS V14.01,2013-10-20 23:25:00,
2013-10-20 19:28:00,49.2,44.3,30.02,NW,307,0.0,0.0,83,0.00,,---,0.01,VWS V14.01,2013-10-20 23:28:00,
2013-10-20 19:30:00,64.1,37.3,30.01,North,360,0.0,2.0,37,0.00,,---,0.01,VWS V14.01,2013-10-20 23:30:00,
2013-10-20 19:33:00,48.6,44.3,30.02,NW,307,0.0,0.0,85,0.00,,---,0.01,VWS V14.01,2013-10-20 23:33:00,
2013-10-20 19:35:00,63.9,38.5,30.01,NE,56,0.0,2.0,39,0.00,,---,0.01,VWS V14.01,2013-10-20 23:35:00,
2013-10-20 19:38:00,48.2,44.2,30.02,NW,307,0.0,0.0,86,0.00,,---,0.01,VWS V14.01,2013-10-20 23:38:00,
2013-10-20 19:40:00,63.8,38.4,30.01,ENE,73,0.0,2.0,39,0.00,,---,0.01,VWS V14.01,2013-10-20 23:40:00,
2013-10-20 19:43:00,47.8,43.8,30.02,NW,307,0.0,0.0,86,0.00,,---,0.01,VWS V14.01,2013-10-20 23:43:00,
2013-10-20 19:45:00,63.6,40.1,30.01,SE,130,0.0,1.0,42,0.00,,---,0.01,VWS V14.01,2013-10-20 23:45:00,
2013-10-20 19:48:00,47.4,43.7,30.03,NW,307,0.0,0.0,87,0.00,,---,0.01,VWS V14.01,2013-10-20 23:48:00,
2013-10-20 19:50:00,63.9,41.0,30.01,East,96,0.0,2.0,43,0.00,,---,0.01,VWS V14.01,2013-10-20 23:50:00,
2013-10-20 19:53:00,46.9,43.2,30.03,NW,307,0.0,0.0,87,0.00,,---,0.01,VWS V14.01,2013-10-20 23:53:00,
2013-10-20 19:55:00,64.2,41.3,30.01,East,87,0.0,1.0,43,0.00,,---,0.01,VWS V14.01,2013-10-20 23:55:00,
2013-10-20 19:58:00,46.5,43.4,30.03,NW,307,0.0,0.0,89,0.00,,---,0.01,VWS V14.01,2013-10-20 23:58:00,
2013-10-20 20:00:00,63.4,42.3,30.01,NW,307,0.0,1.0,46,0.00,,---,0.01,VWS V14.01,2013-10-21 00:00:00,
2013-10-20 20:03:00,46.2,43.4,30.03,NW,307,0.0,0.0,90,0.00,,---,0.01,VWS V14.01,2013-10-21 00:03:00,
2013-10-20 20:05:00,62.8,41.2,30.01,NW,307,0.0,0.0,45,0.00,,---,0.01,VWS V14.01,2013-10-21 00:05:00,
2013-10-20 20:08:00,45.9,43.4,30.03,NW,307,0.0,0.0,91,0.00,,---,0.01,VWS V14.01,2013-10-21 00:08:00,
2013-10-20 20:10:00,62.2,42.3,30.02,NW,307,0.0,0.0,48,0.00,,---,0.01,VWS V14.01,2013-10-21 00:10:00,
2013-10-20 20:13:00,45.6,43.4,30.03,NW,307,0.0,0.0,92,0.00,,---,0.01,VWS V14.01,2013-10-21 00:13:00,
2013-10-20 20:15:00,60.7,40.9,30.02,NW,307,0.0,0.0,48,0.00,,---,0.01,VWS V14.01,2013-10-21 00:15:00,
2013-10-20 20:18:00,45.3,43.1,30.03,NW,307,0.0,0.0,92,0.00,,---,0.01,VWS V14.01,2013-10-21 00:18:00,
2013-10-20 20:20:00,59.5,40.9,30.02,NW,307,0.0,0.0,50,0.00,,---,0.01,VWS V14.01,2013-10-21 00:20:00,
2013-10-20 20:23:00,45.1,42.9,30.03,NW,307,0.0,0.0,92,0.00,,---,0.01,VWS V14.01,2013-10-21 00:23:00,
2013-10-20 20:25:00,58.7,41.6,30.02,NW,307,0.0,0.0,53,0.00,,---,0.01,VWS V14.01,2013-10-21 00:25:00,
2013-10-20 20:28:00,44.8,42.9,30.03,NW,307,0.0,0.0,93,0.00,,---,0.01,VWS V14.01,2013-10-21 00:28:00,
2013-10-20 20:30:00,58.2,42.1,30.02,NW,307,0.0,0.0,55,0.00,,---,0.01,VWS V14.01,2013-10-21 00:30:00,
2013-10-20 20:33:00,44.6,42.7,30.04,NW,307,0.0,0.0,93,0.00,,---,0.01,VWS V14.01,2013-10-21 00:33:00,
2013-10-20 20:35:00,57.5,42.4,30.02,NW,307,0.0,0.0,57,0.00,,---,0.01,VWS V14.01,2013-10-21 00:35:00,
2013-10-20 20:38:00,44.4,42.5,30.04,NW,307,0.0,0.0,93,0.00,,---,0.01,VWS V14.01,2013-10-21 00:38:00,
2013-10-20 20:40:00,56.8,42.6,30.02,NW,307,0.0,0.0,59,0.00,,---,0.01,VWS V14.01,2013-10-21 00:40:00,
2013-10-20 20:43:00,44.2,42.3,30.04,NW,307,0.0,0.0,93,0.00,,---,0.01,VWS V14.01,2013-10-21 00:43:00,
2013-10-20 20:45:00,56.1,43.3,30.02,NW,307,0.0,0.0,62,0.00,,---,0.01,VWS V14.01,2013-10-21 00:45:00,
2013-10-20 20:48:00,43.9,42.3,30.04,NW,307,0.0,0.0,94,0.00,,---,0.01,VWS V14.01,2013-10-21 00:48:00,
2013-10-20 20:50:00,55.2,43.7,30.02,NW,307,0.0,0.0,65,0.00,,---,0.01,VWS V14.01,2013-10-21 00:50:00,
2013-10-20 20:53:00,43.7,42.1,30.04,NW,307,0.0,0.0,94,0.00,,---,0.01,VWS V14.01,2013-10-21 00:53:00,
2013-10-20 20:55:00,54.3,44.0,30.02,NW,307,0.0,0.0,68,0.00,,---,0.01,VWS V14.01,2013-10-21 00:55:00,
2013-10-20 20:58:00,43.5,41.9,30.04,NW,307,0.0,0.0,94,0.00,,---,0.01,VWS V14.01,2013-10-21 00:58:00,
2013-10-20 21:00:00,53.3,44.5,30.02,NW,307,0.0,0.0,72,0.00,,---,0.01,VWS V14.01,2013-10-21 01:00:00,
2013-10-20 21:03:00,43.4,42.1,30.04,NW,307,0.0,0.0,95,0.00,,---,0.01,VWS V14.01,2013-10-21 01:03:00,
2013-10-20 21:05:00,52.4,44.4,30.01,NW,307,0.0,0.0,74,0.00,,---,0.01,VWS V14.01,2013-10-21 01:05:00,
2013-10-20 21:08:00,43.2,41.9,30.04,NW,307,0.0,0.0,95,0.00,,---,0.01,VWS V14.01,2013-10-21 01:08:00,
2013-10-20 21:10:00,51.7,44.4,30.02,NW,307,0.0,0.0,76,0.00,,---,0.01,VWS V14.01,2013-10-21 01:10:00,
2013-10-20 21:13:00,43.0,41.7,30.05,NW,307,0.0,0.0,95,0.00,,---,0.01,VWS V14.01,2013-10-21 01:13:00,
2013-10-20 21:15:00,51.0,44.7,30.02,NW,307,0.0,0.0,79,0.00,,---,0.01,VWS V14.01,2013-10-21 01:15:00,
2013-10-20 21:18:00,42.8,41.5,30.05,NW,307,0.0,0.0,95,0.00,,---,0.01,VWS V14.01,2013-10-21 01:18:00,
2013-10-20 21:20:00,50.3,44.4,30.02,NW,307,0.0,0.0,80,0.00,,---,0.01,VWS V14.01,2013-10-21 01:20:00,
2013-10-20 21:23:00,42.6,41.3,30.05,NW,307,0.0,0.0,95,0.00,,---,0.01,VWS V14.01,2013-10-21 01:23:00,
2013-10-20 21:25:00,49.6,44.7,30.02,NW,307,0.0,0.0,83,0.00,,---,0.01,VWS V14.01,2013-10-21 01:25:00,
2013-10-20 21:28:00,42.4,41.1,30.05,NW,307,0.0,0.0,95,0.00,,---,0.01,VWS V14.01,2013-10-21 01:28:00,
2013-10-20 21:30:00,49.0,44.4,30.02,NW,307,0.0,0.0,84,0.00,,---,0.01,VWS V14.01,2013-10-21 01:30:00,
2013-10-20 21:33:00,42.3,41.0,30.05,NW,307,0.0,0.0,95,0.00,,---,0.01,VWS V14.01,2013-10-21 01:33:00,
2013-10-20 21:35:00,48.5,44.2,30.02,NW,307,0.0,0.0,85,0.00,,---,0.01,VWS V14.01,2013-10-21 01:35:00,
2013-10-20 21:38:00,42.2,41.1,30.05,NW,307,0.0,0.0,96,0.00,,---,0.01,VWS V14.01,2013-10-21 01:38:00,
2013-10-20 21:40:00,48.0,44.0,30.02,NW,307,0.0,0.0,86,0.00,,---,0.01,VWS V14.01,2013-10-21 01:40:00,
2013-10-20 21:43:00,42.1,41.0,30.05,NW,307,0.0,0.0,96,0.00,,---,0.01,VWS V14.01,2013-10-21 01:43:00,
2013-10-20 21:45:00,47.7,44.0,30.02,NW,307,0.0,0.0,87,0.00,,---,0.01,VWS V14.01,2013-10-21 01:45:00,
2013-10-20 21:48:00,41.8,40.8,30.05,NW,307,0.0,0.0,96,0.00,,---,0.01,VWS V14.01,2013-10-21 01:48:00,
2013-10-20 21:50:00,47.3,43.6,30.03,NW,307,0.0,0.0,87,0.00,,---,0.01,VWS V14.01,2013-10-21 01:50:00,
2013-10-20 21:53:00,41.6,40.5,30.05,NW,307,0.0,0.0,96,0.00,,---,0.01,VWS V14.01,2013-10-21 01:53:00,
2013-10-20 21:55:00,46.8,43.1,30.03,NW,307,0.0,0.0,87,0.00,,---,0.01,VWS V14.01,2013-10-21 01:55:00,
2013-10-20 21:58:00,41.4,40.3,30.05,NW,307,0.0,0.0,96,0.00,,---,0.01,VWS V14.01,2013-10-21 01:58:00,
2013-10-20 22:00:00,46.4,43.3,30.03,NW,307,0.0,0.0,89,0.00,,---,0.01,VWS V14.01,2013-10-21 02:00:00,
2013-10-20 22:03:00,41.2,40.4,30.05,NW,307,0.0,0.0,97,0.00,,---,0.01,VWS V14.01,2013-10-21 02:03:00,
2013-10-20 22:05:00,46.1,43.3,30.03,NW,307,0.0,0.0,90,0.00,,---,0.01,VWS V14.01,2013-10-21 02:05:00,
2013-10-20 22:08:00,41.2,40.4,30.05,NW,307,0.0,0.0,97,0.00,,---,0.01,VWS V14.01,2013-10-21 02:08:00,
2013-10-20 22:10:00,45.9,43.4,30.03,NW,307,0.0,0.0,91,0.00,,---,0.01,VWS V14.01,2013-10-21 02:10:00,
2013-10-20 22:13:00,41.0,40.2,30.05,NW,307,0.0,0.0,97,0.00,,---,0.01,VWS V14.01,2013-10-21 02:13:00,
2013-10-20 22:15:00,45.6,43.1,30.03,NW,307,0.0,0.0,91,0.00,,---,0.01,VWS V14.01,2013-10-21 02:15:00,
2013-10-20 22:18:00,40.9,40.1,30.05,NW,307,0.0,0.0,97,0.00,,---,0.01,VWS V14.01,2013-10-21 02:18:00,
2013-10-20 22:20:00,45.2,43.0,30.03,NW,307,0.0,0.0,92,0.00,,---,0.01,VWS V14.01,2013-10-21 02:20:00,
2013-10-20 22:23:00,40.8,40.0,30.06,NW,307,0.0,0.0,97,0.00,,---,0.01,VWS V14.01,2013-10-21 02:23:00,
2013-10-20 22:25:00,45.0,42.8,30.03,NW,307,0.0,0.0,92,0.00,,---,0.01,VWS V14.01,2013-10-21 02:25:00,
2013-10-20 22:28:00,40.6,39.8,30.06,NW,307,0.0,0.0,97,0.00,,---,0.01,VWS V14.01,2013-10-21 02:28:00,
2013-10-20 22:30:00,44.7,42.8,30.04,NW,307,0.0,0.0,93,0.00,,---,0.01,VWS V14.01,2013-10-21 02:30:00,
2013-10-20 22:33:00,40.6,39.8,30.06,NW,307,0.0,0.0,97,0.00,,---,0.01,VWS V14.01,2013-10-21 02:33:00,
2013-10-20 22:35:00,44.5,42.6,30.04,NW,307,0.0,0.0,93,0.00,,---,0.01,VWS V14.01,2013-10-21 02:35:00,
2013-10-20 22:38:00,40.6,40.1,30.06,NW,307,0.0,0.0,98,0.00,,---,0.01,VWS V14.01,2013-10-21 02:38:00,
2013-10-20 22:40:00,44.4,42.5,30.04,NW,307,0.0,0.0,93,0.00,,---,0.01,VWS V14.01,2013-10-21 02:40:00,
2013-10-20 22:43:00,40.6,40.1,30.06,NW,307,0.0,0.0,98,0.00,,---,0.01,VWS V14.01,2013-10-21 02:43:00,
2013-10-20 22:45:00,44.1,42.2,30.04,NW,307,0.0,0.0,93,0.00,,---,0.01,VWS V14.01,2013-10-21 02:45:00,
2013-10-20 22:48:00,40.5,40.0,30.06,NW,307,0.0,0.0,98,0.00,,---,0.01,VWS V14.01,2013-10-21 02:48:00,
2013-10-20 22:50:00,43.9,42.3,30.04,NW,307,0.0,0.0,94,0.00,,---,0.01,VWS V14.01,2013-10-21 02:50:00,
2013-10-20 22:53:00,40.4,39.9,30.06,NW,307,0.0,0.0,98,0.00,,---,0.01,VWS V14.01,2013-10-21 02:53:00,
2013-10-20 22:55:00,43.7,42.1,30.04,NW,307,0.0,0.0,94,0.00,,---,0.01,VWS V14.01,2013-10-21 02:55:00,
2013-10-20 22:58:00,40.4,39.9,30.06,NW,307,0.0,0.0,98,0.00,,---,0.01,VWS V14.01,2013-10-21 02:58:00,
2013-10-20 23:00:00,43.4,41.8,30.04,NW,307,0.0,0.0,94,0.00,,---,0.01,VWS V14.01,2013-10-21 03:00:00,
2013-10-20 23:03:00,40.3,39.8,30.06,NW,307,0.0,0.0,98,0.00,,---,0.01,VWS V14.01,2013-10-21 03:03:00,
2013-10-20 23:05:00,43.3,42.0,30.04,NW,307,0.0,0.0,95,0.00,,---,0.01,VWS V14.01,2013-10-21 03:05:00,
2013-10-20 23:08:00,40.3,39.8,30.06,NW,307,0.0,0.0,98,0.00,,---,0.01,VWS V14.01,2013-10-21 03:08:00,
2013-10-20 23:10:00,43.2,41.9,30.04,NW,307,0.0,0.0,95,0.00,,---,0.01,VWS V14.01,2013-10-21 03:10:00,
2013-10-20 23:13:00,40.2,39.7,30.06,NW,307,0.0,0.0,98,0.00,,---,0.01,VWS V14.01,2013-10-21 03:13:00,
2013-10-20 23:15:00,43.0,41.7,30.05,NW,307,0.0,0.0,95,0.00,,---,0.01,VWS V14.01,2013-10-21 03:15:00,
2013-10-20 23:18:00,40.0,39.5,30.06,NW,307,0.0,0.0,98,0.00,,---,0.01,VWS V14.01,2013-10-21 03:18:00,
2013-10-20 23:20:00,42.8,41.5,30.05,NW,307,0.0,0.0,95,0.00,,---,0.01,VWS V14.01,2013-10-21 03:20:00,
2013-10-20 23:23:00,39.9,39.4,30.06,NW,307,0.0,0.0,98,0.00,,---,0.01,VWS V14.01,2013-10-21 03:23:00,
2013-10-20 23:25:00,42.6,41.3,30.05,NW,307,0.0,0.0,95,0.00,,---,0.01,VWS V14.01,2013-10-21 03:25:00,
2013-10-20 23:28:00,39.8,39.3,30.06,NW,307,0.0,0.0,98,0.00,,---,0.01,VWS V14.01,2013-10-21 03:28:00,
2013-10-20 23:30:00,42.4,41.1,30.05,NW,307,0.0,0.0,95,0.00,,---,0.01,VWS V14.01,2013-10-21 03:30:00,
2013-10-20 23:33:00,39.8,39.3,30.06,NW,307,0.0,0.0,98,0.00,,---,0.01,VWS V14.01,2013-10-21 03:33:00,
2013-10-20 23:35:00,42.3,41.2,30.05,NW,307,0.0,0.0,96,0.00,,---,0.01,VWS V14.01,2013-10-21 03:35:00,
2013-10-20 23:38:00,39.6,39.1,30.06,NW,307,0.0,0.0,98,0.00,,---,0.01,VWS V14.01,2013-10-21 03:38:00,
2013-10-20 23:40:00,42.1,41.0,30.05,NW,307,0.0,0.0,96,0.00,,---,0.01,VWS V14.01,2013-10-21 03:40:00,
2013-10-20 23:43:00,39.4,38.9,30.06,NW,307,0.0,0.0,98,0.00,,---,0.01,VWS V14.01,2013-10-21 03:43:00,
2013-10-20 23:45:00,42.1,41.0,30.05,NW,307,0.0,0.0,96,0.00,,---,0.01,VWS V14.01,2013-10-21 03:45:00,
2013-10-20 23:48:00,39.3,38.8,30.06,NW,307,0.0,0.0,98,0.00,,---,0.01,VWS V14.01,2013-10-21 03:48:00,
2013-10-20 23:50:00,41.8,40.8,30.05,NW,307,0.0,0.0,96,0.00,,---,0.01,VWS V14.01,2013-10-21 03:50:00,
2013-10-20 23:53:00,39.3,38.8,30.06,NW,307,0.0,0.0,98,0.00,,---,0.01,VWS V14.01,2013-10-21 03:53:00,
2013-10-20 23:55:00,41.5,40.5,30.05,NW,307,0.0,0.0,96,0.00,,---,0.01,VWS V14.01,2013-10-21 03:55:00,
2013-10-20 23:58:00,39.2,38.7,30.06,NW,307,0.0,0.0,98,0.00,,---,0.01,VWS V14.01,2013-10-21 03:58:00,